[keps] orb09285.amsat
Ray Hoad
r.hoad at att.net
Mon Oct 12 19:41:36 PDT 2009
SB KEPS @ AMSAT $ORB09285.O
Orbital Elements 09285.OSCAR
HR AMSAT ORBITAL ELEMENTS FOR OSCAR SATELLITES
FROM WA5QGD FORT WORTH,TX October 12, 2009
Send Subscribe/unsubscribe to KEPS at
http://www.amsat.org/mailman/listinfo/keps
BID: ORB09285.O
TO ALL RADIO AMATEURS BT
Satellite: AO-07
Catalog number: 07530
Epoch time: 09284.68588776
Element set: 0603
Inclination: 101.4203 deg
RA of node: 305.0610 deg
Eccentricity: 0.0012100
Arg of perigee: 040.9512 deg
Mean anomaly: 319.2461 deg
Mean motion: 12.53576789 rev/day
Decay rate: -2.7e-07 rev/day^2
Epoch rev: 59731
Checksum: 285
Satellite: FO-29
Catalog number: 24278
Epoch time: 09284.62612305
Element set: 0169
Inclination: 098.5333 deg
RA of node: 142.9104 deg
Eccentricity: 0.0351297
Arg of perigee: 048.6507 deg
Mean anomaly: 314.4291 deg
Mean motion: 13.52946048 rev/day
Decay rate: 1.2e-07 rev/day^2
Epoch rev: 64949
Checksum: 319
Satellite: SO-33
Catalog number: 25509
Epoch time: 09284.92153208
Element set: 0564
Inclination: 031.4331 deg
RA of node: 112.4037 deg
Eccentricity: 0.0354962
Arg of perigee: 279.0919 deg
Mean anomaly: 076.9709 deg
Mean motion: 14.28266679 rev/day
Decay rate: -1.76e-06 rev/day^2
Epoch rev: 57253
Checksum: 330
Satellite: RS-22
Catalog number: 27939
Epoch time: 09284.64639818
Element set: 0912
Inclination: 097.9226 deg
RA of node: 155.1593 deg
Eccentricity: 0.0014292
Arg of perigee: 121.7698 deg
Mean anomaly: 238.4884 deg
Mean motion: 14.63346217 rev/day
Decay rate: 2.6e-07 rev/day^2
Epoch rev: 32260
Checksum: 336
Satellite: VO-52
Catalog number: 28650
Epoch time: 09285.56119120
Element set: 340
Inclination: 097.7291 deg
RA of node: 343.1782 deg
Eccentricity: 0.0027154
Arg of perigee: 008.9529 deg
Mean anomaly: 351.2171 deg
Mean motion: 14.81628280 rev/day
Decay rate: 1.42e-06 rev/day^2
Epoch rev: 24002
Checksum: 284
/EX
SB KEPS @ AMSAT $ORB09285.D
Orbital Elements 09285.MICROS
HR AMSAT ORBITAL ELEMENTS FOR THE MICROSATS
FROM WA5QGD FORT WORTH,TX October 12, 2009
Send Subscribe/unsubscribe to KEPS at
http://www.amsat.org/mailman/listinfo/keps
BID: ORB09285.D
TO ALL RADIO AMATEURS BT
Satellite: AO-16
Catalog number: 20439
Epoch time: 09285.46427211
Element set: 724
Inclination: 098.2953 deg
RA of node: 248.6217 deg
Eccentricity: 0.0010746
Arg of perigee: 177.6266 deg
Mean anomaly: 182.4971 deg
Mean motion: 14.31835278 rev/day
Decay rate: -1.3e-07 rev/day^2
Epoch rev: 2993
Checksum: 321
Satellite: LO-19
Catalog number: 20442
Epoch time: 09284.66365852
Element set: 0638
Inclination: 098.2591 deg
RA of node: 254.6660 deg
Eccentricity: 0.0012104
Arg of perigee: 176.1822 deg
Mean anomaly: 183.9450 deg
Mean motion: 14.32069238 rev/day
Decay rate: -9.9e-07 rev/day^2
Epoch rev: 02998
Checksum: 327
Satellite: AO-27
Catalog number: 22825
Epoch time: 09284.77532568
Element set: 361
Inclination: 098.4511 deg
RA of node: 234.6003 deg
Eccentricity: 0.0007469
Arg of perigee: 281.0532 deg
Mean anomaly: 078.9807 deg
Mean motion: 14.29274985 rev/day
Decay rate: -1.8e-07 rev/day^2
Epoch rev: 83656
Checksum: 336
Satellite: IO-26
Catalog number: 22826
Epoch time: 09284.88495070
Element set: 0092
Inclination: 098.4440 deg
RA of node: 235.4068 deg
Eccentricity: 0.0008126
Arg of perigee: 278.1128 deg
Mean anomaly: 081.9139 deg
Mean motion: 14.29528034 rev/day
Decay rate: -5.0e-08 rev/day^2
Epoch rev: 83668
Checksum: 324
Satellite: GO-32
Catalog number: 25397
Epoch time: 09284.78094626
Element set: 0013
Inclination: 098.3237 deg
RA of node: 300.8552 deg
Eccentricity: 0.0000329
Arg of perigee: 250.5995 deg
Mean anomaly: 109.5145 deg
Mean motion: 14.23164421 rev/day
Decay rate: -5.4e-07 rev/day^2
Epoch rev: 58471
Checksum: 303
Satellite: NO-44
Catalog number: 26931
Epoch time: 09284.84152504
Element set: 286
Inclination: 067.0505 deg
RA of node: 123.8082 deg
Eccentricity: 0.0006699
Arg of perigee: 272.6646 deg
Mean anomaly: 087.3678 deg
Mean motion: 14.29570482 rev/day
Decay rate: 2.06e-06 rev/day^2
Epoch rev: 41925
Checksum: 327
Satellite: SO-50
Catalog number: 27607
Epoch time: 09285.69718045
Element set: 6
Inclination: 064.5596 deg
RA of node: 028.1950 deg
Eccentricity: 0.0053024
Arg of perigee: 175.8020 deg
Mean anomaly: 184.3542 deg
Mean motion: 14.71464934 rev/day
Decay rate: -1.1e-07 rev/day^2
Epoch rev: 36596
Checksum: 307
Satellite: CO-55
Catalog number: 27844
Epoch time: 09284.76505892
Element set: 686
Inclination: 098.7143 deg
RA of node: 292.2963 deg
Eccentricity: 0.0009885
Arg of perigee: 162.9105 deg
Mean anomaly: 197.2404 deg
Mean motion: 14.20659869 rev/day
Decay rate: 3.9e-07 rev/day^2
Epoch rev: 32581
Checksum: 358
Satellite: CO-57
Catalog number: 27848
Epoch time: 09284.68850458
Element set: 637
Inclination: 098.7173 deg
RA of node: 291.2848 deg
Eccentricity: 0.0009622
Arg of perigee: 167.6217 deg
Mean anomaly: 192.5184 deg
Mean motion: 14.20459254 rev/day
Decay rate: 3.4e-07 rev/day^2
Epoch rev: 32576
Checksum: 349
Satellite: AO-51
Catalog number: 28375
Epoch time: 09285.54981769
Element set: 507
Inclination: 098.0545 deg
RA of node: 288.3310 deg
Eccentricity: 0.0084165
Arg of perigee: 128.2125 deg
Mean anomaly: 232.6678 deg
Mean motion: 14.40654611 rev/day
Decay rate: 8.0e-08 rev/day^2
Epoch rev: 27785
Checksum: 332
Satellite: CO-56
Catalog number: 28941
Epoch time: 09285.51775801
Element set: 516
Inclination: 098.1160 deg
RA of node: 123.7786 deg
Eccentricity: 0.0032727
Arg of perigee: 037.9592 deg
Mean anomaly: 322.3981 deg
Mean motion: 16.11459230 rev/day
Decay rate: 4.21528e-03 rev/day^2
Epoch rev: 20593
Checksum: 328
Satellite: GENESAT1
Catalog number: 29655
Epoch time: 09285.83908173
Element set: 830
Inclination: 040.0226 deg
RA of node: 164.8199 deg
Eccentricity: 0.0005527
Arg of perigee: 299.9869 deg
Mean anomaly: 060.0419 deg
Mean motion: 15.68243902 rev/day
Decay rate: 1.4933e-04 rev/day^2
Epoch rev: 16093
Checksum: 331
Satellite: CP3
Catalog number: 31129
Epoch time: 09285.72233495
Element set: 256
Inclination: 097.9732 deg
RA of node: 333.0906 deg
Eccentricity: 0.0101422
Arg of perigee: 281.3103 deg
Mean anomaly: 077.6706 deg
Mean motion: 14.52168510 rev/day
Decay rate: 8.4e-07 rev/day^2
Epoch rev: 13194
Checksum: 286
Satellite: CO-65
Catalog number: 32785
Epoch time: 09285.30680968
Element set: 495
Inclination: 097.9329 deg
RA of node: 348.2265 deg
Eccentricity: 0.0015390
Arg of perigee: 015.1392 deg
Mean anomaly: 345.0267 deg
Mean motion: 14.81526358 rev/day
Decay rate: 1.03e-06 rev/day^2
Epoch rev: 7878
Checksum: 340
Satellite: KKS-1
Catalog number: 33493
Epoch time: 09285.88416004
Element set: 839
Inclination: 098.0667 deg
RA of node: 038.6719 deg
Eccentricity: 0.0019252
Arg of perigee: 218.5566 deg
Mean anomaly: 141.4270 deg
Mean motion: 14.80744891 rev/day
Decay rate: 2.94e-06 rev/day^2
Epoch rev: 3888
Checksum: 337
Satellite: SOHLA-1
Catalog number: 33496
Epoch time: 09285.78057358
Element set: 805
Inclination: 098.0462 deg
RA of node: 033.3042 deg
Eccentricity: 0.0005362
Arg of perigee: 271.1532 deg
Mean anomaly: 088.9059 deg
Mean motion: 14.69449682 rev/day
Decay rate: 2.5e-07 rev/day^2
Epoch rev: 3854
Checksum: 317
/EX
SB KEPS @ AMSAT $ORB09285.W
Orbital Elements 09285.WEATHER
HR AMSAT ORBITAL ELEMENTS FOR WEATHER SATELLITES
FROM WA5QGD FORT WORTH,TX October 12, 2009
Send Subscribe/unsubscribe to KEPS at
http://www.amsat.org/mailman/listinfo/keps
BID: ORB09285.W
TO ALL RADIO AMATEURS BT
Satellite: NOAA-10
Catalog number: 16969
Epoch time: 09285.71086079
Element set: 793
Inclination: 098.6845 deg
RA of node: 311.6785 deg
Eccentricity: 0.0011819
Arg of perigee: 211.5826 deg
Mean anomaly: 148.4643 deg
Mean motion: 14.27395459 rev/day
Decay rate: -1.17e-06 rev/day^2
Epoch rev: 20027
Checksum: 339
Satellite: NOAA-11
Catalog number: 19531
Epoch time: 09285.31291860
Element set: 811
Inclination: 098.7810 deg
RA of node: 013.4400 deg
Eccentricity: 0.0012033
Arg of perigee: 132.0737 deg
Mean anomaly: 228.1477 deg
Mean motion: 14.14904006 rev/day
Decay rate: 5.3e-07 rev/day^2
Epoch rev: 8608
Checksum: 263
Satellite: NOAA-12
Catalog number: 21263
Epoch time: 09285.73927083
Element set: 295
Inclination: 098.7728 deg
RA of node: 293.8682 deg
Eccentricity: 0.0012546
Arg of perigee: 160.8832 deg
Mean anomaly: 199.2819 deg
Mean motion: 14.25596384 rev/day
Decay rate: -4.0e-08 rev/day^2
Epoch rev: 95714
Checksum: 350
Satellite: MET-3/5
Catalog number: 21655
Epoch time: 09285.90126120
Element set: 666
Inclination: 082.5541 deg
RA of node: 123.3573 deg
Eccentricity: 0.0012584
Arg of perigee: 246.6040 deg
Mean anomaly: 113.3760 deg
Mean motion: 13.17020812 rev/day
Decay rate: 5.1e-07 rev/day^2
Epoch rev: 87312
Checksum: 265
Satellite: MET-2/21
Catalog number: 22782
Epoch time: 09284.60467461
Element set: 0588
Inclination: 082.5436 deg
RA of node: 089.6615 deg
Eccentricity: 0.0023078
Arg of perigee: 023.7028 deg
Mean anomaly: 336.5178 deg
Mean motion: 13.83638452 rev/day
Decay rate: 1.0e-08 rev/day^2
Epoch rev: 81370
Checksum: 317
Satellite: OKEAN-4
Catalog number: 23317
Epoch time: 09284.78215356
Element set: 0043
Inclination: 082.5404 deg
RA of node: 225.6694 deg
Eccentricity: 0.0022034
Arg of perigee: 345.1590 deg
Mean anomaly: 014.8978 deg
Mean motion: 14.82726637 rev/day
Decay rate: 1.60e-06 rev/day^2
Epoch rev: 80964
Checksum: 309
Satellite: NOAA-14
Catalog number: 23455
Epoch time: 09285.79441162
Element set: 789
Inclination: 098.8998 deg
RA of node: 003.0096 deg
Eccentricity: 0.0009046
Arg of perigee: 212.1704 deg
Mean anomaly: 147.8906 deg
Mean motion: 14.13768785 rev/day
Decay rate: -2.97e-06 rev/day^2
Epoch rev: 76254
Checksum: 349
Satellite: NOAA-15
Catalog number: 25338
Epoch time: 09285.54147326
Element set: 115
Inclination: 098.5971 deg
RA of node: 272.2441 deg
Eccentricity: 0.0011627
Arg of perigee: 077.4884 deg
Mean anomaly: 282.7573 deg
Mean motion: 14.24786855 rev/day
Decay rate: -9.9e-07 rev/day^2
Epoch rev: 59348
Checksum: 349
